TimeEST,TemperatureF,Dew PointF,Humidity,Sea Level PressureIn,VisibilityMPH,Wind Direction,Wind SpeedMPH,Gust SpeedMPH,PrecipitationIn,Events,Conditions,WindDirDegrees,DateUTC
12:54 AM,46.0,45.0,96,30.12,5.0,South,9.2,20.7,N/A,,Overcast,180,2013-11-17 05:54:00
1:20 AM,46.4,44.6,93,30.09,8.0,South,9.2,-,N/A,,Overcast,170,2013-11-17 06:20:00
1:54 AM,46.9,45.0,93,30.10,10.0,South,8.1,-,N/A,,Mostly Cloudy,170,2013-11-17 06:54:00
2:49 AM,46.4,44.6,93,30.08,10.0,SSE,11.5,-,N/A,,Overcast,160,2013-11-17 07:49:00
2:54 AM,46.9,45.0,93,30.09,10.0,SSE,8.1,-,N/A,,Overcast,150,2013-11-17 07:54:00
3:54 AM,48.0,46.0,93,30.06,10.0,South,10.4,-,N/A,,Overcast,170,2013-11-17 08:54:00
4:54 AM,48.0,46.0,93,30.06,5.0,South,11.5,-,0.03,Rain,Rain,170,2013-11-17 09:54:00
5:54 AM,48.0,46.0,93,30.06,10.0,South,8.1,-,0.01,,Overcast,170,2013-11-17 10:54:00
6:54 AM,48.0,46.9,96,30.06,10.0,South,9.2,-,0.00,Rain,Light Rain,170,2013-11-17 11:54:00
7:54 AM,48.9,46.9,93,30.05,10.0,South,8.1,-,0.00,,Overcast,180,2013-11-17 12:54:00
8:54 AM,51.1,48.9,92,30.04,10.0,South,9.2,-,0.01,,Overcast,170,2013-11-17 13:54:00
9:54 AM,52.0,50.0,93,30.03,8.0,SSE,10.4,-,0.02,Rain,Light Rain,160,2013-11-17 14:54:00
10:54 AM,54.0,50.0,86,30.01,10.0,SSE,10.4,-,0.00,,Overcast,160,2013-11-17 15:54:00
11:54 AM,53.1,48.9,86,29.99,10.0,SSE,13.8,-,0.00,,Overcast,160,2013-11-17 16:54:00
12:54 PM,54.0,51.1,90,29.98,10.0,South,10.4,-,0.00,Rain,Light Rain,170,2013-11-17 17:54:00
1:54 PM,54.0,51.1,90,29.95,10.0,South,10.4,-,0.01,Rain,Light Rain,170,2013-11-17 18:54:00
2:54 PM,53.1,51.1,93,29.91,9.0,SSE,11.5,-,0.05,Rain,Light Rain,160,2013-11-17 19:54:00
3:14 PM,53.6,51.8,94,29.88,10.0,SSE,8.1,-,0.00,Rain,Light Rain,150,2013-11-17 20:14:00
3:54 PM,53.1,51.1,93,29.88,10.0,SSE,12.7,20.7,0.00,,Overcast,150,2013-11-17 20:54:00
4:54 PM,53.1,51.1,93,29.85,10.0,SSE,19.6,26.5,0.02,Rain,Light Rain,160,2013-11-17 21:54:00
5:54 PM,53.1,51.1,93,29.81,10.0,SSE,18.4,32.2,0.00,Rain,Light Rain,160,2013-11-17 22:54:00
6:54 PM,53.1,51.1,93,29.77,7.0,SSE,17.3,25.3,0.02,Rain,Light Rain,160,2013-11-17 23:54:00
7:54 PM,53.1,51.1,93,29.72,10.0,SSE,19.6,27.6,0.02,,Overcast,160,2013-11-18 00:54:00
8:54 PM,54.0,51.1,90,29.67,10.0,SSE,21.9,31.1,0.00,,Overcast,160,2013-11-18 01:54:00
9:54 PM,55.0,52.0,89,29.64,3.0,South,18.4,35.7,0.05,Rain,Rain,170,2013-11-18 02:54:00
10:17 PM,53.6,51.8,94,29.63,5.0,South,19.6,28.8,0.03,Rain,Light Rain,180,2013-11-18 03:17:00
10:54 PM,55.0,53.1,93,29.60,10.0,South,17.3,25.3,0.04,,Overcast,180,2013-11-18 03:54:00
11:30 PM,51.8,48.2,88,29.67,3.0,West,20.7,39.1,0.06,Rain,Rain,260,2013-11-18 04:30:00
11:54 PM,51.1,46.0,83,29.68,10.0,WSW,16.1,25.3,0.11,Rain,Light Rain,250,2013-11-18 04:54:00